User: anonymous   Login
Location: Unspecified
(0.0000°N, 0.0000°E)
Time: 19:04:33
(UTC+00:00)
Language:

STARLINK-1553 - Orbit

View from above orbital plane
View from above orbital plane
View from above satellite
View from above satellite

Ground track
Ground track

The orbit is defined by the following mean orbital elements,

1 46348U          26145.15048537 +.00000000 +00000-0 +67533-3 0 00006
2 46348  53.0368 306.1703 0002849  60.6075 299.5213 15.40519884    05
Epoch (UTC): 25 May 2026 03:36:41
Eccentricity: 0.0002849
inclination: 53.0368°
perigee height: 443 km
apogee height: 447 km
right ascension of ascending node: 306.1703°
argument of perigee: 60.6075°
revolutions per day: 15.40519884
mean anomaly at epoch: 299.5213°

The dashed part of the orbit path shows where the satellite is in the earth's shadow,  

DLR